Regional Weather Roundup
Issued by NWS Bismarck, ND

Home | Current Version | Previous Version | Text Only | Print | Product List | Glossary On
Versions: 1 2 3 4 5 6 7 8 9 10 11 12 13 14 15 16 17 18 19 20 21 22 23 24 25 26 27 28 29 30 31 32 33 34 35 36 37 38 39 40 41 42 43 44 45 46 47 48 49 50
000
ASUS43 KBIS 291859
RWRBIS

NWR BROADCAST TEXT
NATIONAL WEATHER SERVICE BISMARCK ND
200 PM CDT TUE JUL 29 2014

NOTE: "FAIR" INDICATES FEW OR NO CLOUDS BELOW 12,000 FEET WITH NO
SIGNIFICANT WEATHER AND/OR OBSTRUCTIONS TO VISIBILITY.


CITY           SKY/WX    TMP DP  RH WIND       PRES   REMARKS
WILLISTON      MOSUNNY   82  51  34 NW8       30.18F
MINOT          CLOUDY    75  57  53 NE3       30.18F
MINOT AFB      NOT AVBL
BISMARCK       MOSUNNY   79  53  40 CALM      30.20F
DICKINSON      MOSUNNY   79  53  40 S6        30.19F
GARRISON         N/A     76  57  51 NW3       30.19F
HETTINGER ARPT MOSUNNY   79  50  36 W8        30.23S
JAMESTOWN      NOT AVBL
CARRINGTON     FAIR      73  57  56 N7        30.20F
CROSBY         FAIR      77  59  53 CALM      30.21F
HARVEY         MOCLDY    75  57  53 N8        30.19F
HAZEN            N/A     77  54  44 W3        30.19F
LINTON         FAIR      75  54  46 NW5       30.20F
MANDAN         MOCLDY    75  54  46 CALM      30.21F
RUGBY          MOCLDY    72  59  64 N8        30.18F
TIOGA          MOCLDY    75  57  53 E3        30.22F
WATFORD CITY   FAIR      81  55  41 N7        30.16F
$$

CITY           SKY/WX    TMP DP  RH WIND       PRES   REMARKS
GRAND FORKS    MOSUNNY   77  56  48 NW3       30.14F
GRAND FORKS AF NOT AVBL
DEVILS LAKE    MOSUNNY   72  54  53 N9        30.17F
FARGO          MOSUNNY   78  52  40 NW10G18   30.14F
CAVALIER       FAIR      75  54  46 NW6       30.15F
GRAFTON        FAIR      75  54  46 NW8       30.15S
GWINNER        PTCLDY    75  52  43 CALM      30.19F
LANGDON        FAIR      75  52  43 N6        30.18F
$$

CITY           SKY/WX    TMP DP  RH WIND       PRES   REMARKS
ABERDEEN       PTSUNNY   77  51  40 N7        30.18F
MOBRIDGE       MOSUNNY   78  55  44 VRB6      30.18F
RAPID CITY     CLOUDY    66  57  72 CALM      30.27S
GLASGOW        SUNNY     87  43  21 VRB7      30.18F
SIDNEY         SUNNY     82  54  36 N6        30.19F
WOLF POINT     SUNNY     89  45  21 NE9       30.18F
GLENDIVE       SUNNY     84  46  26 N7G16     30.20F
MILES CITY     MOSUNNY   84  51  31 E6        30.19F
BAKER          PTSUNNY   82  49  31 VRB3      30.23F
$$

CITY           SKY/WX    TMP DP  RH WIND       PRES   REMARKS
BILLINGS       MOSUNNY   87  51  28 NE9       30.20F
GREAT FALLS    SUNNY     86  46  24 E8        30.19F
$$



USA.gov is the U.S. government's official web portal to all federal, state and local government web resources and services.